owner,sensor,date,latitude,longitude,vertical_datum,wind_speed,wind_to_direction,wind_speed_of_gust,qcFlag 
TCOON,ioos:station:TCOON:057:1,2016-07-01T00:18:00Z,28.4460,-96.3961,0.0,0.0,82.0,0.0,'1114422,1111122,1114422' 
TCOON,ioos:station:TCOON:057:1,2016-07-01T01:06:00Z,28.4460,-96.3961,0.0,5.4,117.0,6.6,'11111222,11111222,11111222' 
TCOON,ioos:station:TCOON:057:1,2016-07-01T01:12:00Z,28.4460,-96.3961,0.0,4.8,118.0,6.1,'11111222,11111222,11111222' 
TCOON,ioos:station:TCOON:057:1,2016-07-01T01:18:00Z,28.4460,-96.3961,0.0,0.0,112.0,0.0,'1114422,1111122,1114422' 
TCOON,ioos:station:TCOON:057:1,2016-07-01T01:24:00Z,28.4460,-96.3961,0.0,5.3,131.0,6.1,'11111222,11111222,11111222' 
TCOON,ioos:station:TCOON:057:1,2016-07-01T01:30:00Z,28.4460,-96.3961,0.0,5.2,124.0,6.2,'11111222,11111222,11111222' 
TCOON,ioos:station:TCOON:057:1,2016-07-01T01:48:00Z,28.4460,-96.3961,0.0,5.4,124.0,6.6,'11111222,11111222,11111222' 
TCOON,ioos:station:TCOON:057:1,2016-07-01T01:54:00Z,28.4460,-96.3961,0.0,4.6,122.0,6.1,'11111222,11111222,11111222' 
TCOON,ioos:station:TCOON:057:1,2016-07-01T02:00:00Z,28.4460,-96.3961,0.0,4.4,124.0,5.1,'11111222,11111222,11111222' 
TCOON,ioos:station:TCOON:057:1,2016-07-01T02:06:00Z,28.4460,-96.3961,0.0,5.0,120.0,5.7,'11111222,11111222,11111222' 
TCOON,ioos:station:TCOON:057:1,2016-07-01T02:12:00Z,28.4460,-96.3961,0.0,5.0,126.0,5.7,'11111222,11111222,11111222' 
TCOON,ioos:station:TCOON:057:1,2016-07-01T02:18:00Z,28.4460,-96.3961,0.0,0.0,120.0,0.0,'1114422,1111122,1114422' 
TCOON,ioos:station:TCOON:057:1,2016-07-01T02:24:00Z,28.4460,-96.3961,0.0,4.9,130.0,6.0,'11111222,11111222,11111222' 
TCOON,ioos:station:TCOON:057:1,2016-07-01T02:30:00Z,28.4460,-96.3961,0.0,4.6,130.0,5.6,'11111222,11111222,11111222' 
TCOON,ioos:station:TCOON:057:1,2016-07-01T02:36:00Z,28.4460,-96.3961,0.0,4.3,137.0,4.7,'11111222,11111222,11111222' 
TCOON,ioos:station:TCOON:057:1,2016-07-01T02:42:00Z,28.4460,-96.3961,0.0,4.3,137.0,4.8,'11111222,11111222,11111222' 
TCOON,ioos:station:TCOON:057:1,2016-07-01T02:48:00Z,28.4460,-96.3961,0.0,4.0,142.0,5.0,'11111222,11111222,11111222' 
TCOON,ioos:station:TCOON:057:1,2016-07-01T02:54:00Z,28.4460,-96.3961,0.0,3.8,145.0,4.7,'11111222,11111222,11111222' 
TCOON,ioos:station:TCOON:057:1,2016-07-01T03:00:00Z,28.4460,-96.3961,0.0,4.3,137.0,5.0,'11111222,11111222,11111222' 
TCOON,ioos:station:TCOON:057:1,2016-07-01T03:06:00Z,28.4460,-96.3961,0.0,4.3,140.0,5.1,'11111222,11111222,11111222' 
TCOON,ioos:station:TCOON:057:1,2016-07-01T03:12:00Z,28.4460,-96.3961,0.0,4.0,148.0,5.0,'11111222,11111222,11111222' 
TCOON,ioos:station:TCOON:057:1,2016-07-01T03:18:00Z,28.4460,-96.3961,0.0,0.0,141.0,0.0,'1114422,1111122,1114422' 
TCOON,ioos:station:TCOON:057:1,2016-07-01T03:24:00Z,28.4460,-96.3961,0.0,3.9,142.0,4.5,'11111222,11111222,11111222' 
TCOON,ioos:station:TCOON:057:1,2016-07-01T03:30:00Z,28.4460,-96.3961,0.0,3.7,144.0,4.4,'11111222,11111222,11111222' 
TCOON,ioos:station:TCOON:057:1,2016-07-01T03:36:00Z,28.4460,-96.3961,0.0,3.7,142.0,4.3,'11111222,11111222,11111222' 
TCOON,ioos:station:TCOON:057:1,2016-07-01T03:42:00Z,28.4460,-96.3961,0.0,3.6,144.0,4.5,'11111222,11111222,11111222' 
TCOON,ioos:station:TCOON:057:1,2016-07-01T03:48:00Z,28.4460,-96.3961,0.0,3.7,144.0,4.3,'11111222,11111222,11111222' 
TCOON,ioos:station:TCOON:057:1,2016-07-01T03:54:00Z,28.4460,-96.3961,0.0,3.1,148.0,4.0,'11111222,11111222,11111222' 
TCOON,ioos:station:TCOON:057:1,2016-07-01T04:00:00Z,28.4460,-96.3961,0.0,3.1,138.0,4.1,'11111222,11111222,11111222' 
TCOON,ioos:station:TCOON:057:1,2016-07-01T04:06:00Z,28.4460,-96.3961,0.0,3.4,144.0,3.9,'11111222,11111222,11111222' 
TCOON,ioos:station:TCOON:057:1,2016-07-01T04:12:00Z,28.4460,-96.3961,0.0,3.2,144.0,4.0,'11111222,11111222,11111222' 
TCOON,ioos:station:TCOON:057:1,2016-07-01T04:18:00Z,28.4460,-96.3961,0.0,0.0,138.0,0.0,'1114422,1111122,1114422' 
TCOON,ioos:station:TCOON:057:1,2016-07-01T04:24:00Z,28.4460,-96.3961,0.0,3.0,166.0,3.6,'11111222,11111222,11111222' 
TCOON,ioos:station:TCOON:057:1,2016-07-01T04:30:00Z,28.4460,-96.3961,0.0,3.4,159.0,3.9,'11111222,11111222,11111222' 
TCOON,ioos:station:TCOON:057:1,2016-07-01T04:36:00Z,28.4460,-96.3961,0.0,3.1,157.0,4.1,'11111222,11111222,11111222' 
TCOON,ioos:station:TCOON:057:1,2016-07-01T04:42:00Z,28.4460,-96.3961,0.0,3.4,148.0,3.8,'11111222,11111222,11111222' 
TCOON,ioos:station:TCOON:057:1,2016-07-01T04:48:00Z,28.4460,-96.3961,0.0,3.5,149.0,4.0,'11111222,11111222,11111222' 
TCOON,ioos:station:TCOON:057:1,2016-07-01T04:54:00Z,28.4460,-96.3961,0.0,3.3,150.0,3.8,'11111222,11111222,11111222' 
TCOON,ioos:station:TCOON:057:1,2016-07-01T05:00:00Z,28.4460,-96.3961,0.0,3.2,140.0,3.7,'11111222,11111222,11111222' 
TCOON,ioos:station:TCOON:057:1,2016-07-01T05:06:00Z,28.4460,-96.3961,0.0,2.7,153.0,3.5,'11111222,11111222,11111222' 
TCOON,ioos:station:TCOON:057:1,2016-07-01T05:12:00Z,28.4460,-96.3961,0.0,2.7,147.0,3.9,'11111222,11111222,11111222' 
TCOON,ioos:station:TCOON:057:1,2016-07-01T05:18:00Z,28.4460,-96.3961,0.0,0.0,140.0,0.0,'1114422,1111122,1114422' 
TCOON,ioos:station:TCOON:057:1,2016-07-01T05:24:00Z,28.4460,-96.3961,0.0,2.3,147.0,3.0,'11111222,11111222,11111222' 
TCOON,ioos:station:TCOON:057:1,2016-07-01T05:30:00Z,28.4460,-96.3961,0.0,2.0,136.0,3.0,'11111222,11111222,11111222' 
TCOON,ioos:station:TCOON:057:1,2016-07-01T05:36:00Z,28.4460,-96.3961,0.0,1.8,131.0,2.6,'11111222,11111222,11111222' 
TCOON,ioos:station:TCOON:057:1,2016-07-01T05:42:00Z,28.4460,-96.3961,0.0,1.7,177.0,2.7,'11111222,11111222,11111222' 
TCOON,ioos:station:TCOON:057:1,2016-07-01T05:48:00Z,28.4460,-96.3961,0.0,2.5,163.0,2.9,'11111222,11111222,11111222' 
TCOON,ioos:station:TCOON:057:1,2016-07-01T05:54:00Z,28.4460,-96.3961,0.0,2.4,158.0,2.5,'11111222,11111222,11111222' 
TCOON,ioos:station:TCOON:057:1,2016-07-01T06:00:00Z,28.4460,-96.3961,0.0,2.1,156.0,2.8,'11111222,11111222,11111222' 
TCOON,ioos:station:TCOON:057:1,2016-07-01T06:06:00Z,28.4460,-96.3961,0.0,1.8,175.0,2.4,'11111222,11111222,11111222' 
TCOON,ioos:station:TCOON:057:1,2016-07-01T06:12:00Z,28.4460,-96.3961,0.0,2.0,158.0,2.6,'11111222,11111222,11111222' 
TCOON,ioos:station:TCOON:057:1,2016-07-01T06:18:00Z,28.4460,-96.3961,0.0,0.0,150.0,0.0,'1114422,1111122,1114422' 
TCOON,ioos:station:TCOON:057:1,2016-07-01T06:24:00Z,28.4460,-96.3961,0.0,2.7,167.0,3.4,'11111222,11111222,11111222' 
TCOON,ioos:station:TCOON:057:1,2016-07-01T06:30:00Z,28.4460,-96.3961,0.0,3.2,163.0,3.7,'11111222,11111222,11111222' 
TCOON,ioos:station:TCOON:057:1,2016-07-01T06:36:00Z,28.4460,-96.3961,0.0,3.2,153.0,3.7,'11111222,11111222,11111222' 
TCOON,ioos:station:TCOON:057:1,2016-07-01T06:42:00Z,28.4460,-96.3961,0.0,3.8,156.0,4.2,'11111222,11111222,11111222' 
TCOON,ioos:station:TCOON:057:1,2016-07-01T06:48:00Z,28.4460,-96.3961,0.0,4.0,155.0,4.3,'11111222,11111222,11111222' 
TCOON,ioos:station:TCOON:057:1,2016-07-01T06:54:00Z,28.4460,-96.3961,0.0,4.2,160.0,4.6,'11111222,11111222,11111222' 
TCOON,ioos:station:TCOON:057:1,2016-07-01T07:00:00Z,28.4460,-96.3961,0.0,3.7,167.0,4.3,'11111222,11111222,11111222' 
TCOON,ioos:station:TCOON:057:1,2016-07-01T07:06:00Z,28.4460,-96.3961,0.0,3.8,156.0,4.4,'11111222,11111222,11111222' 
TCOON,ioos:station:TCOON:057:1,2016-07-01T07:12:00Z,28.4460,-96.3961,0.0,3.4,163.0,4.0,'11111222,11111222,11111222' 
TCOON,ioos:station:TCOON:057:1,2016-07-01T07:18:00Z,28.4460,-96.3961,0.0,0.0,157.0,0.0,'1114422,1111122,1114422' 
TCOON,ioos:station:TCOON:057:1,2016-07-01T07:24:00Z,28.4460,-96.3961,0.0,3.5,162.0,4.1,'11111222,11111222,11111222' 
TCOON,ioos:station:TCOON:057:1,2016-07-01T07:30:00Z,28.4460,-96.3961,0.0,3.4,158.0,4.2,'11111222,11111222,11111222' 
TCOON,ioos:station:TCOON:057:1,2016-07-01T07:36:00Z,28.4460,-96.3961,0.0,2.8,162.0,3.6,'11111222,11111222,11111222' 
TCOON,ioos:station:TCOON:057:1,2016-07-01T07:42:00Z,28.4460,-96.3961,0.0,3.1,162.0,4.1,'11111222,11111222,11111222' 
TCOON,ioos:station:TCOON:057:1,2016-07-01T07:48:00Z,28.4460,-96.3961,0.0,3.0,165.0,3.9,'11111222,11111222,11111222' 
TCOON,ioos:station:TCOON:057:1,2016-07-01T07:54:00Z,28.4460,-96.3961,0.0,3.3,161.0,3.8,'11111222,11111222,11111222' 
TCOON,ioos:station:TCOON:057:1,2016-07-01T08:00:00Z,28.4460,-96.3961,0.0,3.6,158.0,4.0,'11111222,11111222,11111222' 
TCOON,ioos:station:TCOON:057:1,2016-07-01T08:06:00Z,28.4460,-96.3961,0.0,3.4,150.0,4.0,'11111222,11111222,11111222' 
TCOON,ioos:station:TCOON:057:1,2016-07-01T08:12:00Z,28.4460,-96.3961,0.0,4.4,158.0,5.1,'11111222,11111222,11111222' 
TCOON,ioos:station:TCOON:057:1,2016-07-01T08:18:00Z,28.4460,-96.3961,0.0,0.0,151.0,0.0,'1114422,1111122,1114422' 
TCOON,ioos:station:TCOON:057:1,2016-07-01T08:24:00Z,28.4460,-96.3961,0.0,3.9,160.0,4.5,'11111222,11111222,11111222' 
TCOON,ioos:station:TCOON:057:1,2016-07-01T08:30:00Z,28.4460,-96.3961,0.0,3.9,157.0,4.6,'11111222,11111222,11111222' 
TCOON,ioos:station:TCOON:057:1,2016-07-01T08:36:00Z,28.4460,-96.3961,0.0,3.4,159.0,4.3,'11111222,11111222,11111222' 
TCOON,ioos:station:TCOON:057:1,2016-07-01T08:42:00Z,28.4460,-96.3961,0.0,2.9,156.0,3.6,'11111222,11111222,11111222' 
TCOON,ioos:station:TCOON:057:1,2016-07-01T08:48:00Z,28.4460,-96.3961,0.0,2.9,151.0,3.8,'11111222,11111222,11111222' 
TCOON,ioos:station:TCOON:057:1,2016-07-01T08:54:00Z,28.4460,-96.3961,0.0,2.9,148.0,4.5,'11111222,11111222,11111222' 
TCOON,ioos:station:TCOON:057:1,2016-07-01T09:00:00Z,28.4460,-96.3961,0.0,3.3,134.0,4.0,'11111222,11111222,11111222' 
TCOON,ioos:station:TCOON:057:1,2016-07-01T09:06:00Z,28.4460,-96.3961,0.0,3.1,129.0,4.0,'11111222,11111222,11111222' 
TCOON,ioos:station:TCOON:057:1,2016-07-01T09:12:00Z,28.4460,-96.3961,0.0,3.6,130.0,4.4,'11111222,11111222,11111222' 
TCOON,ioos:station:TCOON:057:1,2016-07-01T09:18:00Z,28.4460,-96.3961,0.0,0.0,124.0,0.0,'1114422,1111122,1114422' 
TCOON,ioos:station:TCOON:057:1,2016-07-01T09:24:00Z,28.4460,-96.3961,0.0,3.7,165.0,4.3,'11111222,11111222,11111222' 
TCOON,ioos:station:TCOON:057:1,2016-07-01T09:30:00Z,28.4460,-96.3961,0.0,3.4,168.0,4.5,'11111222,11111222,11111222' 
TCOON,ioos:station:TCOON:057:1,2016-07-01T09:36:00Z,28.4460,-96.3961,0.0,4.6,175.0,5.4,'11111222,11111222,11111222' 
TCOON,ioos:station:TCOON:057:1,2016-07-01T09:42:00Z,28.4460,-96.3961,0.0,4.5,196.0,5.9,'11111222,11111222,11111222' 
TCOON,ioos:station:TCOON:057:1,2016-07-01T09:48:00Z,28.4460,-96.3961,0.0,4.6,201.0,5.4,'11111222,11111222,11111222' 
TCOON,ioos:station:TCOON:057:1,2016-07-01T09:54:00Z,28.4460,-96.3961,0.0,5.1,217.0,6.3,'11111222,11111222,11111222' 
TCOON,ioos:station:TCOON:057:1,2016-07-01T10:00:00Z,28.4460,-96.3961,0.0,5.6,222.0,6.8,'11111222,11111222,11111222' 
TCOON,ioos:station:TCOON:057:1,2016-07-01T10:06:00Z,28.4460,-96.3961,0.0,5.7,236.0,6.5,'11111222,11111222,11111222' 
TCOON,ioos:station:TCOON:057:1,2016-07-01T10:12:00Z,28.4460,-96.3961,0.0,3.9,242.0,6.2,'11111222,11111222,11111222' 
TCOON,ioos:station:TCOON:057:1,2016-07-01T10:18:00Z,28.4460,-96.3961,0.0,0.0,231.0,0.0,'1114422,1111122,1114422' 
TCOON,ioos:station:TCOON:057:1,2016-07-01T10:24:00Z,28.4460,-96.3961,0.0,2.0,232.0,2.8,'11111222,11111222,11111222' 
TCOON,ioos:station:TCOON:057:1,2016-07-01T10:30:00Z,28.4460,-96.3961,0.0,1.7,244.0,2.4,'11111222,11111222,11111222' 
TCOON,ioos:station:TCOON:057:1,2016-07-01T10:36:00Z,28.4460,-96.3961,0.0,2.6,303.0,2.9,'11111222,11111222,11111222' 
TCOON,ioos:station:TCOON:057:1,2016-07-01T10:42:00Z,28.4460,-96.3961,0.0,1.2,297.0,2.4,'11111222,11111222,11111222' 
TCOON,ioos:station:TCOON:057:1,2016-07-01T10:48:00Z,28.4460,-96.3961,0.0,0.8,298.0,1.3,'11111222,11111222,11111222' 
TCOON,ioos:station:TCOON:057:1,2016-07-01T10:54:00Z,28.4460,-96.3961,0.0,0.9,287.0,1.0,'11111222,11111222,11111222' 
TCOON,ioos:station:TCOON:057:1,2016-07-01T11:00:00Z,28.4460,-96.3961,0.0,0.4,279.0,1.0,'11111222,11111222,11111222' 
TCOON,ioos:station:TCOON:057:1,2016-07-01T11:06:00Z,28.4460,-96.3961,0.0,0.0,279.0,0.2,'11111222,11111222,11111222' 
TCOON,ioos:station:TCOON:057:1,2016-07-01T11:12:00Z,28.4460,-96.3961,0.0,0.0,279.0,0.0,'11111222,11111222,11111222' 
TCOON,ioos:station:TCOON:057:1,2016-07-01T11:18:00Z,28.4460,-96.3961,0.0,0.0,278.0,0.0,'1114422,1111122,1114422' 
TCOON,ioos:station:TCOON:057:1,2016-07-01T11:24:00Z,28.4460,-96.3961,0.0,4.3,201.0,5.1,'11111222,11111222,11111222' 
TCOON,ioos:station:TCOON:057:1,2016-07-01T11:30:00Z,28.4460,-96.3961,0.0,3.7,216.0,5.9,'11111222,11111222,11111222' 
TCOON,ioos:station:TCOON:057:1,2016-07-01T11:36:00Z,28.4460,-96.3961,0.0,4.8,203.0,6.4,'11111222,11111222,11111222' 
TCOON,ioos:station:TCOON:057:1,2016-07-01T11:42:00Z,28.4460,-96.3961,0.0,5.5,226.0,6.8,'11111222,11111222,11111222' 
TCOON,ioos:station:TCOON:057:1,2016-07-01T11:48:00Z,28.4460,-96.3961,0.0,4.2,228.0,6.9,'11111222,11111222,11111222' 
TCOON,ioos:station:TCOON:057:1,2016-07-01T11:54:00Z,28.4460,-96.3961,0.0,4.3,228.0,5.2,'11111222,11111222,11111222' 
TCOON,ioos:station:TCOON:057:1,2016-07-01T12:00:00Z,28.4460,-96.3961,0.0,4.1,232.0,5.0,'11111222,11111222,11111222' 
TCOON,ioos:station:TCOON:057:1,2016-07-01T12:06:00Z,28.4460,-96.3961,0.0,4.3,244.0,5.3,'11111222,11111222,11111222' 
TCOON,ioos:station:TCOON:057:1,2016-07-01T12:12:00Z,28.4460,-96.3961,0.0,3.7,265.0,5.0,'11111222,11111222,11111222' 
TCOON,ioos:station:TCOON:057:1,2016-07-01T12:18:00Z,28.4460,-96.3961,0.0,0.0,251.0,0.0,'1114422,1111122,1114422' 
TCOON,ioos:station:TCOON:057:1,2016-07-01T12:24:00Z,28.4460,-96.3961,0.0,4.1,240.0,6.2,'11111222,11111222,11111222' 
TCOON,ioos:station:TCOON:057:1,2016-07-01T12:30:00Z,28.4460,-96.3961,0.0,3.6,236.0,5.0,'11111222,11111222,11111222' 
TCOON,ioos:station:TCOON:057:1,2016-07-01T12:36:00Z,28.4460,-96.3961,0.0,4.2,311.0,4.6,'11111222,11111222,11111222' 
TCOON,ioos:station:TCOON:057:1,2016-07-01T12:42:00Z,28.4460,-96.3961,0.0,2.1,301.0,3.9,'11111222,11111222,11111222' 
TCOON,ioos:station:TCOON:057:1,2016-07-01T12:48:00Z,28.4460,-96.3961,0.0,1.6,308.0,2.0,'11111222,11111222,11111222' 
TCOON,ioos:station:TCOON:057:1,2016-07-01T12:54:00Z,28.4460,-96.3961,0.0,2.3,313.0,2.6,'11111222,11111222,11111222' 
TCOON,ioos:station:TCOON:057:1,2016-07-01T13:00:00Z,28.4460,-96.3961,0.0,1.8,300.0,2.4,'11111222,11111222,11111222' 
TCOON,ioos:station:TCOON:057:1,2016-07-01T13:06:00Z,28.4460,-96.3961,0.0,1.6,274.0,1.9,'11111222,11111222,11111222' 
TCOON,ioos:station:TCOON:057:1,2016-07-01T13:12:00Z,28.4460,-96.3961,0.0,1.8,284.0,2.1,'11111222,11111222,11111222' 
TCOON,ioos:station:TCOON:057:1,2016-07-01T13:18:00Z,28.4460,-96.3961,0.0,0.0,290.0,0.0,'1114422,1111122,1114422' 
TCOON,ioos:station:TCOON:057:1,2016-07-01T13:24:00Z,28.4460,-96.3961,0.0,1.2,292.0,1.3,'11111222,11111222,11111222' 
TCOON,ioos:station:TCOON:057:1,2016-07-01T13:30:00Z,28.4460,-96.3961,0.0,1.4,289.0,1.6,'11111222,11111222,11111222' 
TCOON,ioos:station:TCOON:057:1,2016-07-01T13:36:00Z,28.4460,-96.3961,0.0,1.2,253.0,1.6,'11111222,11111222,11111222' 
TCOON,ioos:station:TCOON:057:1,2016-07-01T13:42:00Z,28.4460,-96.3961,0.0,0.1,251.0,1.1,'11111222,11111222,11111222' 
TCOON,ioos:station:TCOON:057:1,2016-07-01T13:48:00Z,28.4460,-96.3961,0.0,1.1,320.0,1.3,'11111222,11111222,11111222' 
TCOON,ioos:station:TCOON:057:1,2016-07-01T13:54:00Z,28.4460,-96.3961,0.0,0.9,328.0,1.3,'11111222,11111222,11111222' 
TCOON,ioos:station:TCOON:057:1,2016-07-01T14:00:00Z,28.4460,-96.3961,0.0,1.4,336.0,1.6,'11111222,11111222,11111222' 
TCOON,ioos:station:TCOON:057:1,2016-07-01T14:06:00Z,28.4460,-96.3961,0.0,1.9,338.0,2.3,'11111222,11111222,11111222' 
TCOON,ioos:station:TCOON:057:1,2016-07-01T14:12:00Z,28.4460,-96.3961,0.0,2.0,316.0,2.3,'11111222,11111222,11111222' 
TCOON,ioos:station:TCOON:057:1,2016-07-01T14:18:00Z,28.4460,-96.3961,0.0,0.0,302.0,0.0,'1114422,1111122,1114422' 
TCOON,ioos:station:TCOON:057:1,2016-07-01T14:24:00Z,28.4460,-96.3961,0.0,1.3,280.0,1.6,'11111222,11111222,11111222' 
TCOON,ioos:station:TCOON:057:1,2016-07-01T14:30:00Z,28.4460,-96.3961,0.0,0.8,319.0,1.5,'11111222,11111222,11111222' 
TCOON,ioos:station:TCOON:057:1,2016-07-01T14:36:00Z,28.4460,-96.3961,0.0,0.9,317.0,1.3,'11111222,11111222,11111222' 
TCOON,ioos:station:TCOON:057:1,2016-07-01T14:42:00Z,28.4460,-96.3961,0.0,1.0,3.0,1.2,'11111222,11111222,11111222' 
TCOON,ioos:station:TCOON:057:1,2016-07-01T14:48:00Z,28.4460,-96.3961,0.0,0.9,68.0,1.1,'11111222,11111222,11111222' 
TCOON,ioos:station:TCOON:057:1,2016-07-01T14:54:00Z,28.4460,-96.3961,0.0,2.1,68.0,2.4,'11111222,11111222,11111222' 
TCOON,ioos:station:TCOON:057:1,2016-07-01T15:00:00Z,28.4460,-96.3961,0.0,2.0,58.0,2.9,'11111222,11111222,11111222' 
TCOON,ioos:station:TCOON:057:1,2016-07-01T15:06:00Z,28.4460,-96.3961,0.0,2.3,103.0,2.8,'11111222,11111222,11111222' 
TCOON,ioos:station:TCOON:057:1,2016-07-01T15:12:00Z,28.4460,-96.3961,0.0,2.5,100.0,3.9,'11111222,11111222,11111222' 
TCOON,ioos:station:TCOON:057:1,2016-07-01T15:18:00Z,28.4460,-96.3961,0.0,0.0,94.0,0.0,'1114422,1111122,1114422' 
TCOON,ioos:station:TCOON:057:1,2016-07-01T15:24:00Z,28.4460,-96.3961,0.0,1.4,117.0,1.6,'11111222,11111222,11111222' 
TCOON,ioos:station:TCOON:057:1,2016-07-01T15:30:00Z,28.4460,-96.3961,0.0,1.3,135.0,2.0,'11111222,11111222,11111222' 
TCOON,ioos:station:TCOON:057:1,2016-07-01T15:36:00Z,28.4460,-96.3961,0.0,1.7,181.0,2.1,'11111222,11111222,11111222' 
TCOON,ioos:station:TCOON:057:1,2016-07-01T15:42:00Z,28.4460,-96.3961,0.0,1.3,216.0,2.5,'11111222,11111222,11111222' 
TCOON,ioos:station:TCOON:057:1,2016-07-01T15:48:00Z,28.4460,-96.3961,0.0,0.8,176.0,1.6,'11111222,11111222,11111222' 
TCOON,ioos:station:TCOON:057:1,2016-07-01T15:54:00Z,28.4460,-96.3961,0.0,0.9,35.0,1.5,'11111222,11111222,11111222' 
TCOON,ioos:station:TCOON:057:1,2016-07-01T16:00:00Z,28.4460,-96.3961,0.0,1.7,16.0,1.9,'11111222,11111222,11111222' 
TCOON,ioos:station:TCOON:057:1,2016-07-01T16:06:00Z,28.4460,-96.3961,0.0,1.8,29.0,2.2,'11111222,11111222,11111222' 
TCOON,ioos:station:TCOON:057:1,2016-07-01T16:12:00Z,28.4460,-96.3961,0.0,2.5,12.0,2.8,'11111222,11111222,11111222' 
TCOON,ioos:station:TCOON:057:1,2016-07-01T16:18:00Z,28.4460,-96.3961,0.0,0.0,57.0,0.0,'1114422,1111122,1114422' 
TCOON,ioos:station:TCOON:057:1,2016-07-01T16:24:00Z,28.4460,-96.3961,0.0,2.8,53.0,3.1,'11111222,11111222,11111222' 
TCOON,ioos:station:TCOON:057:1,2016-07-01T16:30:00Z,28.4460,-96.3961,0.0,3.2,58.0,3.5,'11111222,11111222,11111222' 
TCOON,ioos:station:TCOON:057:1,2016-07-01T16:36:00Z,28.4460,-96.3961,0.0,3.4,55.0,3.8,'11111222,11111222,11111222' 
TCOON,ioos:station:TCOON:057:1,2016-07-01T16:42:00Z,28.4460,-96.3961,0.0,2.9,41.0,3.5,'11111222,11111222,11111222' 
TCOON,ioos:station:TCOON:057:1,2016-07-01T16:48:00Z,28.4460,-96.3961,0.0,2.8,44.0,3.1,'11111222,11111222,11111222' 
TCOON,ioos:station:TCOON:057:1,2016-07-01T16:54:00Z,28.4460,-96.3961,0.0,2.4,42.0,3.1,'11111222,11111222,11111222' 
TCOON,ioos:station:TCOON:057:1,2016-07-01T17:00:00Z,28.4460,-96.3961,0.0,2.2,71.0,2.8,'11111222,11111222,11111222' 
TCOON,ioos:station:TCOON:057:1,2016-07-01T17:06:00Z,28.4460,-96.3961,0.0,1.8,105.0,2.4,'11111222,11111222,11111222' 
TCOON,ioos:station:TCOON:057:1,2016-07-01T17:12:00Z,28.4460,-96.3961,0.0,5.8,174.0,7.0,'11111222,11111222,11111222' 
TCOON,ioos:station:TCOON:057:1,2016-07-01T17:18:00Z,28.4460,-96.3961,0.0,0.0,165.0,0.0,'1114422,1111122,1114422' 
TCOON,ioos:station:TCOON:057:1,2016-07-01T17:24:00Z,28.4460,-96.3961,0.0,4.0,179.0,4.7,'11111222,11111222,11111222' 
TCOON,ioos:station:TCOON:057:1,2016-07-01T17:30:00Z,28.4460,-96.3961,0.0,3.5,197.0,4.5,'11111222,11111222,11111222' 
TCOON,ioos:station:TCOON:057:1,2016-07-01T17:36:00Z,28.4460,-96.3961,0.0,2.3,204.0,3.4,'11111222,11111222,11111222' 
TCOON,ioos:station:TCOON:057:1,2016-07-01T17:42:00Z,28.4460,-96.3961,0.0,1.0,231.0,2.6,'11111222,11111222,11111222' 
TCOON,ioos:station:TCOON:057:1,2016-07-01T17:48:00Z,28.4460,-96.3961,0.0,1.7,233.0,2.3,'11111222,11111222,11111222' 
TCOON,ioos:station:TCOON:057:1,2016-07-01T17:54:00Z,28.4460,-96.3961,0.0,0.9,254.0,3.2,'11111222,11111222,11111222' 
TCOON,ioos:station:TCOON:057:1,2016-07-01T18:00:00Z,28.4460,-96.3961,0.0,0.7,281.0,1.4,'11111222,11111222,11111222' 
TCOON,ioos:station:TCOON:057:1,2016-07-01T18:06:00Z,28.4460,-96.3961,0.0,1.2,209.0,1.9,'11111222,11111222,11111222' 
TCOON,ioos:station:TCOON:057:1,2016-07-01T18:12:00Z,28.4460,-96.3961,0.0,1.2,214.0,1.7,'11111222,11111222,11111222' 
TCOON,ioos:station:TCOON:057:1,2016-07-01T18:18:00Z,28.4460,-96.3961,0.0,0.0,203.0,0.0,'1114422,1111122,1114422' 
TCOON,ioos:station:TCOON:057:1,2016-07-01T18:24:00Z,28.4460,-96.3961,0.0,1.2,88.0,1.5,'11111222,11111222,11111222' 
TCOON,ioos:station:TCOON:057:1,2016-07-01T18:30:00Z,28.4460,-96.3961,0.0,1.7,77.0,1.9,'11111222,11111222,11111222' 
TCOON,ioos:station:TCOON:057:1,2016-07-01T18:36:00Z,28.4460,-96.3961,0.0,1.6,80.0,1.9,'11111222,11111222,11111222' 
TCOON,ioos:station:TCOON:057:1,2016-07-01T18:42:00Z,28.4460,-96.3961,0.0,1.5,81.0,1.8,'11111222,11111222,11111222' 
TCOON,ioos:station:TCOON:057:1,2016-07-01T18:48:00Z,28.4460,-96.3961,0.0,1.4,73.0,1.8,'11111222,11111222,11111222' 
TCOON,ioos:station:TCOON:057:1,2016-07-01T18:54:00Z,28.4460,-96.3961,0.0,1.4,112.0,1.9,'11111222,11111222,11111222' 
TCOON,ioos:station:TCOON:057:1,2016-07-01T19:00:00Z,28.4460,-96.3961,0.0,1.9,109.0,2.3,'11111222,11111222,11111222' 
TCOON,ioos:station:TCOON:057:1,2016-07-01T19:06:00Z,28.4460,-96.3961,0.0,1.9,99.0,2.6,'11111222,11111222,11111222' 
TCOON,ioos:station:TCOON:057:1,2016-07-01T19:12:00Z,28.4460,-96.3961,0.0,1.8,93.0,2.2,'11111222,11111222,11111222' 
TCOON,ioos:station:TCOON:057:1,2016-07-01T19:18:00Z,28.4460,-96.3961,0.0,0.0,134.0,0.0,'1114422,1111122,1114422' 
TCOON,ioos:station:TCOON:057:1,2016-07-01T19:24:00Z,28.4460,-96.3961,0.0,2.2,112.0,2.7,'11111222,11111222,11111222' 
TCOON,ioos:station:TCOON:057:1,2016-07-01T19:30:00Z,28.4460,-96.3961,0.0,2.4,116.0,2.8,'11111222,11111222,11111222' 
TCOON,ioos:station:TCOON:057:1,2016-07-01T19:36:00Z,28.4460,-96.3961,0.0,2.1,101.0,2.8,'11111222,11111222,11111222' 
TCOON,ioos:station:TCOON:057:1,2016-07-01T19:42:00Z,28.4460,-96.3961,0.0,2.5,109.0,3.0,'11111222,11111222,11111222' 
TCOON,ioos:station:TCOON:057:1,2016-07-01T19:48:00Z,28.4460,-96.3961,0.0,2.3,109.0,2.9,'11111222,11111222,11111222' 
TCOON,ioos:station:TCOON:057:1,2016-07-01T19:54:00Z,28.4460,-96.3961,0.0,2.2,124.0,2.7,'11111222,11111222,11111222' 
TCOON,ioos:station:TCOON:057:1,2016-07-01T20:00:00Z,28.4460,-96.3961,0.0,2.2,110.0,2.8,'11111222,11111222,11111222' 
TCOON,ioos:station:TCOON:057:1,2016-07-01T20:06:00Z,28.4460,-96.3961,0.0,2.7,119.0,3.3,'11111222,11111222,11111222' 
TCOON,ioos:station:TCOON:057:1,2016-07-01T20:12:00Z,28.4460,-96.3961,0.0,3.0,121.0,3.7,'11111222,11111222,11111222' 
TCOON,ioos:station:TCOON:057:1,2016-07-01T20:18:00Z,28.4460,-96.3961,0.0,0.0,115.0,0.0,'1114422,1111122,1114422' 
TCOON,ioos:station:TCOON:057:1,2016-07-01T20:24:00Z,28.4460,-96.3961,0.0,3.6,126.0,4.5,'11111222,11111222,11111222' 
TCOON,ioos:station:TCOON:057:1,2016-07-01T20:30:00Z,28.4460,-96.3961,0.0,4.4,119.0,5.2,'11111222,11111222,11111222' 
TCOON,ioos:station:TCOON:057:1,2016-07-01T20:36:00Z,28.4460,-96.3961,0.0,4.2,127.0,5.1,'11111222,11111222,11111222' 
TCOON,ioos:station:TCOON:057:1,2016-07-01T20:42:00Z,28.4460,-96.3961,0.0,3.8,133.0,5.1,'11111222,11111222,11111222' 
TCOON,ioos:station:TCOON:057:1,2016-07-01T20:48:00Z,28.4460,-96.3961,0.0,4.7,121.0,5.5,'11111222,11111222,11111222' 
TCOON,ioos:station:TCOON:057:1,2016-07-01T20:54:00Z,28.4460,-96.3961,0.0,4.3,124.0,5.4,'11111222,11111222,11111222' 
TCOON,ioos:station:TCOON:057:1,2016-07-01T21:00:00Z,28.4460,-96.3961,0.0,4.9,110.0,5.4,'11111222,11111222,11111222' 
TCOON,ioos:station:TCOON:057:1,2016-07-01T21:06:00Z,28.4460,-96.3961,0.0,4.2,139.0,5.7,'11111222,11111222,11111222' 
TCOON,ioos:station:TCOON:057:1,2016-07-01T21:12:00Z,28.4460,-96.3961,0.0,4.0,120.0,5.0,'11111222,11111222,11111222' 
TCOON,ioos:station:TCOON:057:1,2016-07-01T21:18:00Z,28.4460,-96.3961,0.0,0.0,118.0,0.0,'1114422,1111122,1114422' 
TCOON,ioos:station:TCOON:057:1,2016-07-01T21:24:00Z,28.4460,-96.3961,0.0,4.2,128.0,5.0,'11111222,11111222,11111222' 
TCOON,ioos:station:TCOON:057:1,2016-07-01T21:30:00Z,28.4460,-96.3961,0.0,4.6,127.0,5.0,'11111222,11111222,11111222' 